| time (UTC) | temp F | wind direction | speed MPH | gust MPH | rain 1hr in | rain 24hr in | rain mn in | humidity % | barometer mb |
| 20260507024555 | 42 | 304 | 0.0 | 4.0 | 0.00 | 0.00 | 0.00 | ||
| 20260507023515 | 42 | 0.0 | 0.0 | 0.00 | 0.00 | 0.00 | |||
| 20260507022515 | 43 | 340 | 0.0 | 5.0 | 0.00 | 0.00 | 0.00 | ||
| 20260507021515 | 42 | 335 | 0.0 | 6.0 | 0.00 | 0.00 | 0.00 | ||
| 20260507020515 | 43 | 0.0 | 0.0 | 0.00 | 0.00 | 0.00 | |||
| 20260507015515 | 43 | 330 | 0.0 | 3.0 | 0.00 | 0.00 | 0.00 | ||
| 20260507014515 | 43 | 0.0 | 0.0 | 0.00 | 0.00 | 0.00 | |||
| 20260507013515 | 43 | 0.0 | 0.0 | 0.00 | 0.00 | 0.00 | |||
| 20260507012515 | 43 | 0.0 | 0.0 | 0.00 | 0.00 | 0.00 | |||
| 20260507011515 | 43 | 0.0 | 0.0 | 0.00 | 0.00 | 0.00 | |||
| 20260507010515 | 43 | 328 | 0.0 | 5.0 | 0.00 | 0.00 | 0.00 | ||
| 20260507005535 | 43 | 335 | 3.0 | 8.0 | 0.00 | 0.00 | 0.00 | ||
| 20260507004515 | 43 | 329 | 5.0 | 8.0 | 0.00 | 0.00 | 0.00 | ||
| 20260507003515 | 43 | 329 | 4.0 | 9.0 | 0.00 | 0.00 | 0.00 | ||
| 20260507002535 | 43 | 320 | 4.0 | 8.0 | 0.00 | 0.00 | 0.00 | ||
| 20260507001535 | 43 | 321 | 4.0 | 7.0 | 0.00 | 0.00 | 0.00 | ||
| 20260507000515 | 43 | 311 | 2.0 | 6.0 | 0.00 | 0.00 | 0.00 | ||
| 20260506235515 | 43 | 317 | 3.0 | 6.0 | 0.00 | 0.00 | 0.00 | ||
| 20260506234535 | 44 | 328 | 3.0 | 6.0 | 0.00 | 0.00 | 0.00 | ||
| 20260506233515 | 44 | 321 | 3.0 | 6.0 | 0.00 | 0.00 | 0.00 | ||
| 20260506232515 | 44 | 323 | 3.0 | 6.0 | 0.00 | 0.00 | 0.00 | ||
| 20260506231515 | 44 | 333 | 4.0 | 8.0 | 0.00 | 0.00 | 0.00 | ||
| 20260506230515 | 44 | 330 | 5.0 | 7.0 | 0.00 | 0.00 | 0.00 | ||
| 20260506225515 | 44 | 331 | 4.0 | 7.0 | 0.00 | 0.00 | 0.00 | ||
| 20260506224515 | 45 | 329 | 4.0 | 7.0 | 0.00 | 0.00 | 0.00 | ||
| 20260506223515 | 45 | 331 | 5.0 | 9.0 | 0.00 | 0.00 | 0.00 | ||
| 20260506222515 | 45 | 333 | 6.0 | 10.0 | 0.00 | 0.00 | 0.00 | ||
| 20260506221515 | 45 | 340 | 7.0 | 11.0 | 0.00 | 0.00 | 0.00 | ||
| 20260506220515 | 45 | 341 | 7.0 | 9.0 | 0.00 | 0.00 | 0.00 | ||
| 20260506215515 | 45 | 342 | 7.0 | 11.0 | 0.00 | 0.00 | 0.00 | ||
| 20260506214515 | 46 | 342 | 7.0 | 11.0 | 0.00 | 0.00 | 0.00 | ||
| 20260506213515 | 46 | 343 | 9.0 | 12.0 | 0.00 | 0.00 | 0.00 | ||
| 20260506212515 | 46 | 345 | 9.0 | 12.0 | 0.00 | 0.00 | 0.00 | ||
| 20260506211535 | 46 | 351 | 8.0 | 11.0 | 0.00 | 0.00 | 0.00 | ||
| 20260506210515 | 47 | 344 | 9.0 | 12.0 | 0.00 | 0.00 | 0.00 | ||
| 20260506205515 | 47 | 353 | 8.0 | 12.0 | 0.00 | 0.00 | 0.00 | ||
| 20260506204516 | 47 | 354 | 10.0 | 13.0 | 0.00 | 0.00 | 0.00 | ||
| 20260506203515 | 47 | 354 | 10.0 | 14.0 | 0.00 | 0.00 | 0.00 | ||
| 20260506202535 | 47 | 353 | 10.0 | 13.0 | 0.00 | 0.00 | 0.00 | ||
| 20260506201515 | 48 | 346 | 9.0 | 11.0 | 0.00 | 0.00 | 0.00 | ||
| 20260506200515 | 48 | 355 | 9.0 | 12.0 | 0.00 | 0.00 | 0.00 | ||
| 20260506195535 | 48 | 352 | 11.0 | 15.0 | 0.00 | 0.00 | 0.00 | ||
| 20260506194515 | 48 | 360 | 11.0 | 15.0 | 0.00 | 0.00 | 0.00 | ||
| 20260506193535 | 49 | 1 | 12.0 | 16.0 | 0.00 | 0.00 | 0.00 | ||
| 20260506192515 | 49 | 357 | 12.0 | 14.0 | 0.00 | 0.00 | 0.00 | ||
| 20260506191515 | 50 | 11 | 12.0 | 15.0 | 0.00 | 0.00 | 0.00 | ||
| 20260506190535 | 50 | 11 | 11.0 | 15.0 | 0.00 | 0.00 | 0.00 | ||
| 20260506185535 | 50 | 0 | 12.0 | 16.0 | 0.00 | 0.00 | 0.00 | ||
| 20260506184515 | 51 | 352 | 14.0 | 19.0 | 0.00 | 0.00 | 0.00 | ||
| 20260506183515 | 51 | 352 | 14.0 | 19.0 | 0.00 | 0.00 | 0.00 | ||
| 20260506182515 | 52 | 355 | 13.0 | 16.0 | 0.00 | 0.00 | 0.00 | ||
| 20260506181516 | 52 | 356 | 13.0 | 18.0 | 0.00 | 0.00 | 0.00 | ||
| 20260506180515 | 53 | 2 | 16.0 | 21.0 | 0.00 | 0.00 | 0.00 | ||
| 20260506175515 | 53 | 1 | 17.0 | 22.0 | 0.00 | 0.00 | 0.00 | ||
| 20260506174515 | 53 | 4 | 18.0 | 23.0 | 0.00 | 0.00 | 0.00 | ||
| 20260506173515 | 54 | 356 | 17.0 | 23.0 | 0.00 | 0.00 | 0.00 | ||
| 20260506172515 | 54 | 1 | 15.0 | 20.0 | 0.00 | 0.00 | 0.00 | ||
| 20260506171515 | 54 | 1 | 16.0 | 22.0 | 0.00 | 0.00 | 0.00 | ||
| 20260506170535 | 54 | 2 | 17.0 | 23.0 | 0.00 | 0.00 | 0.00 | ||
| 20260506165515 | 54 | 359 | 19.0 | 25.0 | 0.00 | 0.00 | 0.00 | ||
| 20260506164515 | 55 | 2 | 17.0 | 22.0 | 0.00 | 0.00 | 0.00 | ||
| 20260506163515 | 55 | 6 | 20.0 | 25.0 | 0.00 | 0.00 | 0.00 | ||
| 20260506162515 | 56 | 3 | 18.0 | 24.0 | 0.00 | 0.00 | 0.00 | ||
| 20260506161515 | 55 | 1 | 19.0 | 24.0 | 0.00 | 0.00 | 0.00 | ||
| 20260506160515 | 55 | 2 | 18.0 | 22.0 | 0.00 | 0.00 | 0.00 | ||
| 20260506155515 | 55 | 359 | 18.0 | 24.0 | 0.00 | 0.00 | 0.00 | ||
| 20260506154515 | 55 | 2 | 17.0 | 24.0 | 0.00 | 0.00 | 0.00 | ||
| 20260506153515 | 55 | 356 | 19.0 | 24.0 | 0.00 | 0.00 | 0.00 | ||
| 20260506152515 | 56 | 6 | 19.0 | 24.0 | 0.00 | 0.00 | 0.00 | ||
| 20260506151515 | 57 | 1 | 19.0 | 25.0 | 0.00 | 0.00 | 0.00 | ||
| 20260506150515 | 57 | 0 | 19.0 | 24.0 | 0.00 | 0.00 | 0.00 | ||
| 20260506145515 | 57 | 3 | 18.0 | 22.0 | 0.00 | 0.00 | 0.00 | ||
| 20260506144515 | 56 | 1 | 19.0 | 27.0 | 0.00 | 0.00 | 0.00 | ||
| 20260506143515 | 57 | 8 | 18.0 | 23.0 | 0.00 | 0.00 | 0.00 | ||
| 20260506142515 | 57 | 3 | 19.0 | 25.0 | 0.00 | 0.00 | 0.00 | ||
| 20260506141515 | 57 | 6 | 18.0 | 26.0 | 0.00 | 0.00 | 0.00 | ||
| 20260506140515 | 57 | 7 | 19.0 | 24.0 | 0.00 | 0.00 | 0.00 | ||
| 20260506135535 | 58 | 3 | 17.0 | 24.0 | 0.00 | 0.00 | 0.00 | ||
| 20260506134515 | 57 | 7 | 20.0 | 25.0 | 0.00 | 0.00 | 0.00 | ||
| 20260506133515 | 58 | 6 | 20.0 | 26.0 | 0.00 | 0.00 | 0.00 | ||
| 20260506132515 | 58 | 7 | 18.0 | 25.0 | 0.00 | 0.00 | 0.00 | ||
| 20260506131515 | 58 | 16 | 18.0 | 24.0 | 0.00 | 0.00 | 0.00 | ||
| 20260506130515 | 59 | 15 | 19.0 | 25.0 | 0.00 | 0.00 | 0.00 | ||
| 20260506125535 | 59 | 8 | 18.0 | 22.0 | 0.00 | 0.00 | 0.00 | ||
| 20260506124515 | 58 | 13 | 21.0 | 28.0 | 0.00 | 0.00 | 0.00 | ||
| 20260506123535 | 58 | 7 | 19.0 | 27.0 | 0.00 | 0.00 | 0.00 | ||
| 20260506122555 | 59 | 5 | 18.0 | 29.0 | 0.00 | 0.00 | 0.00 | ||
| 20260506121515 | 59 | 18 | 17.0 | 23.0 | 0.00 | 0.00 | 0.00 | ||
| 20260506120515 | 58 | 18 | 18.0 | 23.0 | 0.00 | 0.00 | 0.00 | ||
| 20260506115535 | 59 | 12 | 19.0 | 26.0 | 0.00 | 0.00 | 0.00 | ||
| 20260506114515 | 58 | 25 | 22.0 | 27.0 | 0.00 | 0.00 | 0.00 | ||
| 20260506113515 | 59 | 18 | 20.0 | 25.0 | 0.00 | 0.00 | 0.00 | ||
| 20260506112515 | 59 | 10 | 18.0 | 24.0 | 0.00 | 0.00 | 0.00 | ||
| 20260506111516 | 59 | 10 | 18.0 | 22.0 | 0.00 | 0.00 | 0.00 | ||
| 20260506110515 | 59 | 6 | 16.0 | 22.0 | 0.00 | 0.00 | 0.00 | ||
| 20260506105515 | 59 | 28 | 19.0 | 25.0 | 0.00 | 0.00 | 0.00 | ||
| 20260506104515 | 58 | 37 | 19.0 | 24.0 | 0.00 | 0.00 | 0.00 | ||
| 20260506103515 | 58 | 26 | 18.0 | 23.0 | 0.00 | 0.00 | 0.00 | ||
| 20260506102515 | 59 | 19 | 18.0 | 24.0 | 0.00 | 0.00 | 0.00 | ||
| 20260506101535 | 58 | 27 | 18.0 | 23.0 | 0.00 | 0.00 | 0.00 | ||
| 20260506100515 | 58 | 23 | 18.0 | 22.0 | 0.00 | 0.00 | 0.00 | ||
| 20260506095515 | 58 | 28 | 18.0 | 23.0 | 0.00 | 0.00 | 0.00 | ||
| 20260506094515 | 58 | 15 | 18.0 | 24.0 | 0.00 | 0.00 | 0.00 | ||
| 20260506093515 | 58 | 15 | 19.0 | 23.0 | 0.00 | 0.00 | 0.00 | ||
| 20260506092515 | 58 | 24 | 17.0 | 23.0 | 0.00 | 0.00 | 0.00 | ||
| 20260506091515 | 59 | 18 | 16.0 | 21.0 | 0.00 | 0.00 | 0.00 | ||
| 20260506090515 | 58 | 17 | 19.0 | 24.0 | 0.00 | 0.00 | 0.00 | ||
| 20260506085515 | 59 | 15 | 17.0 | 21.0 | 0.00 | 0.00 | 0.00 | ||
| 20260506084515 | 58 | 16 | 17.0 | 22.0 | 0.00 | 0.00 | 0.00 | ||
| 20260506083515 | 57 | 25 | 18.0 | 25.0 | 0.00 | 0.00 | 0.00 | ||
| 20260506082515 | 58 | 12 | 16.0 | 20.0 | 0.00 | 0.00 | 0.00 | ||
| 20260506081515 | 58 | 9 | 15.0 | 20.0 | 0.00 | 0.00 | 0.00 | ||
| 20260506080515 | 57 | 14 | 17.0 | 20.0 | 0.00 | 0.00 | 0.00 | ||
| 20260506073515 | 55 | 8 | 15.0 | 18.0 | 0.00 | 0.00 | 0.00 | ||
| 20260506072515 | 54 | 14 | 16.0 | 21.0 | 0.00 | 0.00 | 0.00 | ||
| 20260506071515 | 54 | 11 | 15.0 | 18.0 | 0.00 | 0.00 | 0.00 | ||
| 20260506070555 | 53 | 9 | 15.0 | 20.0 | 0.00 | 0.00 | 0.00 | ||
| 20260506062515 | 53 | 13 | 16.0 | 20.0 | 0.00 | 0.00 | 0.00 | ||
| 20260506061515 | 55 | 13 | 17.0 | 23.0 | 0.00 | 0.00 | 0.00 | ||
| 20260506060515 | 62 | 9 | 14.0 | 19.0 | 0.00 | 0.00 | 0.00 | ||
| 20260506050515 | 52 | 352 | 6.0 | 10.0 | 0.00 | 0.00 | 0.00 | ||
| 20260506044515 | 50 | 0 | 8.0 | 13.0 | 0.00 | 0.00 | 0.00 | ||
| 20260506043636 | 49 | 1 | 9.0 | 13.0 | 0.00 | 0.00 | 0.00 | ||
| 20260506042515 | 49 | 4 | 10.0 | 15.0 | 0.00 | 0.00 | 0.00 | ||
| 20260506041515 | 49 | 4 | 14.0 | 18.0 | 0.00 | 0.00 | 0.00 | ||
| 20260506040535 | 49 | 359 | 13.0 | 17.0 | 0.00 | 0.00 | 0.00 | ||
| 20260506035515 | 49 | 353 | 10.0 | 15.0 | 0.00 | 0.00 | 0.00 | ||
| 20260506034515 | 49 | 350 | 11.0 | 16.0 | 0.00 | 0.00 | 0.00 | ||
| 20260506033515 | 49 | 354 | 11.0 | 17.0 | 0.00 | 0.00 | 0.00 | ||
| 20260506032515 | 49 | 0 | 13.0 | 18.0 | 0.00 | 0.00 | 0.00 | ||
| 20260506031515 | 49 | 355 | 10.0 | 15.0 | 0.00 | 0.00 | 0.00 | ||
| 20260506030515 | 49 | 357 | 12.0 | 17.0 | 0.00 | 0.00 | 0.00 | ||
| 20260506025515 | 49 | 1 | 14.0 | 18.0 | 0.00 | 0.00 | 0.00 |